Total_Precipitation_Accumulation
0.27 0.33 0.37 0.40 0.65 0.82 0.84 0.96 0.93 0.82 0.52 0.36 0.23 0.16 0.14 0.13 0.13 0.16 0.15 0.19 0.23 0.27 0.33 0.27 0.29 0.26 0.21 0.20 0.21 0.21 0.21 0.19 0.17 0.16 0.12 0.09 0.08 0.08 0.06 0.05 0.07 0.07 0.08
0.21 0.19 0.15 0.27 0.31 0.38 0.44 0.47 0.48 0.40 0.24 0.17 0.15 0.13 0.11 0.08 0.07 0.07 0.09 0.09 0.12 0.17 0.23 0.30 0.24 0.23 0.22 0.20 0.17 0.17 0.16 0.14 0.13 0.13 0.10 0.06 0.05 0.05 0.02 0.06 0.06 0.06 0.10
0.07 0.04 0.04 0.08 0.25 0.45 0.39 0.24 0.24 0.19 0.12 0.10 0.10 0.09 0.09 0.09 0.09 0.07 0.07 0.08 0.07 0.09 0.14 0.21 0.23 0.25 0.21 0.23 0.24 0.20 0.17 0.12 0.09 0.08 0.08 0.06 0.04 0.03 0.02 0.03 0.03 0.04 0.08
0.01 0.01 0.02 0.05 0.14 0.26 0.26 0.20 0.19 0.18 0.11 0.08 0.07 0.06 0.06 0.07 0.07 0.07 0.06 0.06 0.06 0.07 0.08 0.10 0.15 0.22 0.24 0.30 0.21 0.20 0.19 0.15 0.09 0.07 0.06 0.04 0.04 0.05 0.05 0.04 0.01 0.05 0.09
0.01 0.00 0.00 0.01 0.02 0.05 0.11 0.14 0.20 0.25 0.17 0.13 0.09 0.08 0.06 0.05 0.06 0.06 0.07 0.08 0.10 0.11 0.12 0.12 0.11 0.12 0.18 0.26 0.28 0.31 0.24 0.21 0.14 0.09 0.07 0.07 0.04 0.03 0.04 0.06 0.05 0.05 0.03
0.01 0.00 0.00 0.00 0.01 0.04 0.06 0.08 0.14 0.19 0.17 0.14 0.13 0.14 0.14 0.13 0.11 0.11 0.11 0.14 0.17 0.19 0.19 0.19 0.20 0.19 0.17 0.17 0.19 0.23 0.27 0.28 0.25 0.15 0.08 0.08 0.06 0.03 0.03 0.03 0.05 0.09 0.04
0.00 0.01 0.01 0.01 0.01 0.03 0.03 0.03 0.05 0.08 0.10 0.09 0.10 0.15 0.23 0.29 0.29 0.25 0.21 0.20 0.21 0.23 0.23 0.22 0.24 0.27 0.27 0.24 0.19 0.15 0.20 0.27 0.28 0.23 0.17 0.09 0.05 0.04 0.05 0.04 0.03 0.05 0.04
0.00 0.00 0.01 0.01 0.01 0.01 0.01 0.01 0.01 0.01 0.02 0.03 0.05 0.07 0.11 0.18 0.26 0.31 0.30 0.30 0.32 0.27 0.23 0.21 0.22 0.25 0.29 0.31 0.28 0.22 0.20 0.22 0.25 0.27 0.28 0.21 0.08 0.05 0.04 0.05 0.05 0.05 0.05
0.00 0.00 0.00 0.00 0.00 0.00 0.00 0.00 0.00 0.00 0.00 0.00 0.01 0.01 0.02 0.03 0.06 0.10 0.14 0.21 0.31 0.30 0.24 0.20 0.19 0.21 0.25 0.29 0.31 0.29 0.29 0.26 0.23 0.27 0.33 0.30 0.19 0.11 0.06 0.06 0.07 0.10 0.10
0.00 0.00 0.00 0.00 0.00 0.00 0.00 0.00 0.00 0.00 0.00 0.00 0.00 0.00 0.01 0.01 0.02 0.03 0.04 0.06 0.11 0.14 0.15 0.15 0.15 0.16 0.18 0.22 0.27 0.32 0.38 0.40 0.36 0.32 0.34 0.35 0.32 0.27 0.19 0.13 0.10 0.10 0.11
0.00 0.00 0.00 0.00 0.00 0.00 0.00 0.00 0.00 0.00 0.00 0.00 0.00 0.00 0.00 0.00 0.00 0.01 0.01 0.01 0.02 0.02 0.03 0.05 0.07 0.09 0.10 0.13 0.18 0.25 0.36 0.49 0.57 0.55 0.48 0.42 0.42 0.39 0.32 0.26 0.19 0.14 0.15
0.00 0.00 0.00 0.00 0.00 0.00 0.00 0.00 0.00 0.00 0.00 0.00 0.00 0.00 0.00 0.00 0.00 0.00 0.00 0.00 0.00 0.00 0.01 0.01 0.02 0.02 0.03 0.05 0.09 0.15 0.22 0.33 0.49 0.65 0.68 0.60 0.52 0.46 0.38 0.32 0.28 0.24 0.23
0.00 0.00 0.00 0.00 0.00 0.00 0.00 0.00 0.00 0.00 0.00 0.00 0.00 0.00 0.00 0.00 0.00 0.00 0.00 0.00 0.00 0.01 0.01 0.01 0.01 0.01 0.02 0.04 0.05 0.06 0.08 0.14 0.23 0.39 0.59 0.69 0.66 0.54 0.46 0.38 0.33 0.30 0.28
0.00 0.00 0.00 0.00 0.00 0.00 0.00 0.00 0.00 0.00 0.00 0.00 0.00 0.01 0.01 0.01 0.01 0.01 0.01 0.01 0.01 0.02 0.02 0.02 0.02 0.03 0.03 0.04 0.06 0.07 0.07 0.07 0.09 0.15 0.28 0.47 0.63 0.62 0.54 0.46 0.39 0.37 0.36
0.00 0.00 0.00 0.00 0.00 0.00 0.00 0.00 0.00 0.00 0.00 0.02 0.01 0.01 0.01 0.01 0.01 0.01 0.02 0.02 0.03 0.03 0.04 0.05 0.06 0.06 0.06 0.04 0.06 0.11 0.11 0.13 0.12 0.11 0.12 0.18 0.32 0.48 0.55 0.51 0.45 0.41 0.39
0.00 0.00 0.00 0.00 0.00 0.00 0.00 0.00 0.00 0.00 0.00 0.01 0.01 0.01 0.02 0.03 0.04 0.04 0.05 0.06 0.07 0.08 0.10 0.10 0.11 0.11 0.07 0.06 0.07 0.10 0.14 0.21 0.25 0.22 0.18 0.14 0.13 0.22 0.34 0.44 0.47 0.45 0.40
0.00 0.00 0.00 0.00 0.00 0.00 0.00 0.00 0.00 0.01 0.00 0.01 0.01 0.01 0.03 0.04 0.06 0.08 0.11 0.11 0.12 0.13 0.16 0.15 0.15 0.15 0.14 0.12 0.10 0.07 0.14 0.23 0.30 0.34 0.31 0.19 0.10 0.12 0.16 0.24 0.33 0.37 0.34
0.00 0.00 0.00 0.00 0.00 0.00 0.00 0.00 0.00 0.01 0.01 0.01 0.02 0.03 0.05 0.07 0.10 0.12 0.14 0.17 0.19 0.20 0.20 0.19 0.19 0.20 0.18 0.16 0.12 0.09 0.16 0.23 0.24 0.30 0.35 0.27 0.21 0.18 0.18 0.16 0.17 0.21 0.23
0.00 0.00 0.00 0.00 0.00 0.01 0.01 0.01 0.01 0.01 0.02 0.03 0.04 0.06 0.09 0.11 0.13 0.15 0.17 0.22 0.24 0.22 0.21 0.20 0.22 0.25 0.24 0.21 0.14 0.11 0.22 0.28 0.25 0.25 0.28 0.29 0.25 0.19 0.14 0.15 0.13 0.13 0.15
0.00 0.00 0.00 0.00 0.01 0.02 0.01 0.02 0.03 0.04 0.06 0.07 0.08 0.10 0.13 0.15 0.16 0.17 0.19 0.22 0.25 0.25 0.23 0.21 0.23 0.27 0.29 0.25 0.14 0.11 0.22 0.30 0.29 0.30 0.33 0.35 0.32 0.22 0.12 0.13 0.14 0.11 0.11
0.00 0.00 0.00 0.00 0.01 0.02 0.03 0.05 0.06 0.07 0.07 0.08 0.10 0.11 0.12 0.14 0.15 0.18 0.20 0.21 0.23 0.22 0.22 0.22 0.25 0.29 0.29 0.24 0.13 0.10 0.19 0.27 0.29 0.28 0.29 0.35 0.31 0.22 0.13 0.12 0.13 0.11 0.10
0.00 0.00 0.00 0.01 0.02 0.04 0.06 0.07 0.07 0.06 0.06 0.07 0.09 0.10 0.11 0.13 0.15 0.21 0.23 0.23 0.23 0.22 0.21 0.22 0.23 0.27 0.29 0.22 0.14 0.07 0.10 0.20 0.29 0.38 0.37 0.39 0.40 0.26 0.18 0.15 0.14 0.08 0.06
0.00 0.00 0.01 0.01 0.03 0.05 0.07 0.10 0.10 0.08 0.08 0.09 0.10 0.11 0.13 0.16 0.21 0.27 0.28 0.28 0.29 0.29 0.26 0.23 0.21 0.23 0.27 0.22 0.10 0.06 0.05 0.12 0.24 0.41 0.52 0.52 0.49 0.38 0.28 0.23 0.20 0.11 0.07
0.00 0.01 0.02 0.03 0.04 0.05 0.08 0.11 0.13 0.13 0.14 0.14 0.12 0.13 0.15 0.15 0.18 0.25 0.27 0.29 0.30 0.29 0.25 0.23 0.23 0.24 0.25 0.22 0.14 0.08 0.05 0.07 0.15 0.30 0.45 0.55 0.61 0.56 0.44 0.36 0.30 0.19 0.12
0.01 0.02 0.03 0.04 0.05 0.06 0.08 0.09 0.12 0.16 0.17 0.16 0.14 0.13 0.11 0.11 0.13 0.18 0.21 0.18 0.21 0.17 0.15 0.17 0.20 0.22 0.22 0.14 0.08 0.10 0.10 0.08 0.10 0.22 0.45 0.58 0.67 0.69 0.63 0.53 0.44 0.33 0.23
0.02 0.03 0.04 0.04 0.04 0.05 0.05 0.05 0.07 0.13 0.19 0.19 0.16 0.13 0.11 0.13 0.15 0.16 0.18 0.17 0.13 0.11 0.12 0.13 0.10 0.07 0.07 0.04 0.02 0.02 0.02 0.03 0.07 0.22 0.44 0.58 0.64 0.66 0.70 0.68 0.61 0.46 0.33